Meteo Giornale » Osservazioni meteo Reunion » Saint-Denis-Gillot

ore: 08:00 - Osservazioni Meteo Saint-Denis-Gillot
Lat. 20° 53' S Lon. 55° 31' E Alt. 21 metri s.l.m.

molto_nuvoloso

21 °C

Molto Nuvoloso

Temp. 24 Ore

21 °C

26 °C

Sud-Est

25.9 Km/h

Dew point 17 °C

Umidità 77 %

Visibilità  10 Km

Il sole sorge alle ore 06:26

Il sole tramonta alle ore 18:09

Data e Ora Cielo e Fenomeni T °C DP °C Um. % Pres. hPa Vis. km Vento km/h
Oggi h: 08:00 molto_nuvoloso Molto Nuvoloso 21 17 77 1025 10 SE 25.9
Oggi h: 07:30 poco_nuvoloso Poco Nuvoloso 21 16 73 1025 10 SE 24
Oggi h: 07:00 molto_nuvoloso Molto Nuvoloso 21 17 77 1025 10 SE 25.9
Oggi h: 06:30 coperto Coperto 21 17 77 1025 10 SE 18.5
Oggi h: 06:00 molto_nuvoloso Molto Nuvoloso 21 18 82 1024 10 SE 22.2
Oggi h: 05:30 coperto Coperto 21 18 82 1024 10 S 16.7
Oggi h: 05:00 molto_nuvoloso Molto Nuvoloso 21 17 77 1024 10 S/SE 18.5
Oggi h: 04:30 coperto Coperto 22 16 68 1024 10 S/SE 20.3
Oggi h: 04:00 molto_nuvoloso Molto Nuvoloso 22 16 68 1024 10 SE 25.9
Oggi h: 03:30 molto_nuvoloso Molto Nuvoloso 22 16 68 1024 10 S/SE 20.3
Oggi h: 03:00 molto_nuvoloso Molto Nuvoloso 22 16 68 1024 10 SE 29.6
Oggi h: 02:30 molto_nuvoloso Molto Nuvoloso 21 17 77 1024 10 SE 24
Oggi h: 02:00 molto_nuvoloso Molto Nuvoloso 21 17 77 1024 10 SE 25.9
Oggi h: 01:30 coperto_pioggia Pioggia 21 17 77 1024 10 E/SE 27.8
Oggi h: 01:00 sereno Sereno 22 16 68 1025 10 E/SE 24
Oggi h: 00:30 sereno Sereno 22 16 68 1025 10 SE 25.9
Oggi h: 00:00 sereno Sereno 22 16 68 1025 10 SE 29.6
Ieri h: 23:30 sereno Sereno 22 16 68 1025 10 SE 27.8
Ieri h: 23:00 sereno Sereno 22 15 64 1025 10 SE 27.8
Ieri h: 22:30 nuvoloso Nuvoloso 22 15 64 1025 10 SE 29.6
Ieri h: 22:00 poco_nuvoloso Poco Nuvoloso 22 17 73 1025 10 E/SE 24
Ieri h: 21:30 sereno Sereno 22 17 73 1025 10 SE 24
Ieri h: 21:00 sereno Sereno 22 17 73 1025 10 SE 24
Ieri h: 20:30 sereno Sereno 22 17 73 1024 10 SE 24
Ieri h: 20:00 poco_nuvoloso Poco Nuvoloso 22 16 68 1024 10 SE 25.9
Ieri h: 19:30 coperto Coperto 21 18 82 1024 10 SE 31.5
Ieri h: 19:00 molto_nuvoloso Molto Nuvoloso 22 17 73 1024 10 E/SE 18.5
Ieri h: 18:30 sereno Sereno 22 16 68 1023 10 SE 24
Ieri h: 18:00 sereno Sereno 23 16 64 1023 10 E/SE 25.9
Ieri h: 17:30 sereno Sereno 24 17 64 1023 10 E/SE 29.6
Ieri h: 17:00 sereno Sereno 25 17 61 1023 10 E/SE 35.2
Ieri h: 16:30 sereno Sereno 25 17 61 1023 10 E/SE 38.8
Ieri h: 16:00 sereno Sereno 25 17 61 1022 10 E/SE 38.8
Ieri h: 15:30 sereno Sereno 26 16 54 1022 10 E/SE 37
Ieri h: 15:00 sereno Sereno 26 16 54 1023 10 E/SE 38.8
Ieri h: 14:30 poco_nuvoloso Poco Nuvoloso 26 17 57 1023 10 E 37
Ieri h: 14:00 nuvoloso Nuvoloso 26 17 57 1023 10 E 35.2
Ieri h: 13:30 poco_nuvoloso Poco Nuvoloso 26 18 61 1023 10 E 37
Ieri h: 13:00 nuvoloso Nuvoloso 26 17 57 1024 10 E 35.2
Ieri h: 12:30 poco_nuvoloso Poco Nuvoloso 26 18 61 1024 10 E 31.5
Ieri h: 12:00 poco_nuvoloso Poco Nuvoloso 26 17 57 1024 10 E 29.6
Ieri h: 11:30 poco_nuvoloso Poco Nuvoloso 26 17 57 1025 10 E/SE 27.8
Ieri h: 11:00 nuvoloso Nuvoloso 25 17 61 1025 10 E/SE 33.3
Ieri h: 10:30 molto_nuvoloso Molto Nuvoloso 25 18 65 1025 10 E/SE 27.8
Ieri h: 10:00 molto_nuvoloso Molto Nuvoloso 24 19 73 1026 10 SE 24
Ieri h: 09:30 molto_nuvoloso Molto Nuvoloso 23 18 73 1026 10 S/SE 22.2
Ieri h: 09:00 molto_nuvoloso Molto Nuvoloso 23 19 78 1026 10 S/SE 16.7